Regional Weather Roundup
Issued by NWS

Home | Current Version | Previous Version | Graphics & Text | Print | Product List | Glossary Off
Versions: 1 2 3 4 5 6 7 8 9 10 11 12 13 14 15 16 17 18 19 20 21 22 23 24 25 26 27 28 29 30 31 32 33 34 35 36 37 38 39 40 41 42 43 44 45 46 47 48 49 50

000
ASUS43 KMPX 271610
RWRMN
WEATHER ROUNDUP FOR MINNESOTA
NATIONAL WEATHER SERVICE TWIN CITIES/CHANHASSEN MN
1100 AM CDT FRI MAY 27 2016


NOTE: "FAIR" INDICATES FEW OR NO CLOUDS BELOW 12,000 FEET WITH NO
SIGNIFICANT WEATHER AND/OR OBSTRUCTIONS TO VISIBILITY. N/A MEANS
CURRENT SKY AND/OR WEATHER CONDITIONS ARE NOT AVAILABLE.

MNZ060>063-068>070-271700-
   Twin Cities Metro

CITY           SKY/WX    TMP DP  RH WIND       PRES   REMARKS
TWIN CITIES    LGT RAIN  64  60  87 SE12      29.83S FOG
ST PAUL        LGT RAIN  63  60  90 SE9       29.84S
CRYSTAL        RAIN      64  59  83 SE10      29.82R
BLAINE         LGT RAIN  64  63  94 SE14G22   29.84R
EDEN PRAIRIE   LGT RAIN  64  60  87 E9        29.82R FOG
SOUTH ST PAUL  LGT RAIN  64  60  88 CALM      29.83F
LAKE ELMO      RAIN      63  61  94 CALM      29.84F
$$
MNZ001>005-007-008-013>017-022>024-027-028-271700-
   Northwest Minnesota

CITY           SKY/WX    TMP DP  RH WIND       PRES   REMARKS
BEMIDJI        PTSUNNY   67  54  62 SE13      29.84R
HALLOCK        PTSUNNY   63  55  77 SE6       29.81S
ROSEAU         MOSUNNY   64  57  77 CALM      29.82S
WARROAD        MOSUNNY   63  57  82 E8        29.84R
THIEF RVR FALL CLOUDY    64  54  68 CALM      29.83S
CROOKSTON      CLOUDY    66  57  72 CALM      29.82S
FOSSTON        PTSUNNY   70  70 100 NE3       29.81F
DETROIT LAKES  MOSUNNY   70  54  56 E7        29.80S
MOORHEAD       MOSUNNY   72  55  56 N8        29.78F
PARK RAPIDS    CLOUDY    64  52  64 E9        29.81S
MAHNOMEN       FAIR      71  57  61 NE3       29.79F
$$
MNZ006-009>011-018-025>026-271700-
   North Central Minnesota

CITY           SKY/WX    TMP DP  RH WIND       PRES   REMARKS
BAUDETTE       PTSUNNY   65  55  70 E6        29.83F
FLAG ISLAND    MOSUNNY   61  55  82 S5        29.83R
INTL FALLS     MOSUNNY   69  55  60 NE3       29.84F
WASKISH        CLOUDY    73  55  53 E5        29.82S
BIG FORK       CLOUDY    66  55  68 E5        29.86R
LONGVILLE      RAIN      61  55  82 CALM      29.85R
GRAND RAPIDS   RAIN      57  54  89 N5        29.89R
CRANE LAKE     CLOUDY    63  57  82 CALM      29.88S
ORR            CLOUDY    64  54  68 CALM      29.85R
COOK           RAIN      63  55  77 SE6       29.90R
WALKER         CLOUDY    62  54  75 E7        29.83S
$$
MNZ012-019>021-037-271700-
   Northeast Minnesota

CITY           SKY/WX    TMP DP  RH WIND       PRES   REMARKS
DULUTH         LGT RAIN  62  52  69 SE7       29.89R
ELY            CLOUDY    68  50  52 CALM      29.89R
HIBBING        LGT RAIN  58  55  90 E5        29.89R
EVELETH        LGT RAIN  59  55  88 CALM      29.91R
DULUTH HARBOR  DRIZZLE   46  45  93 NE7       29.91R
TWO HARBORS    DRIZZLE   55  52  88 SW3       29.89R
SILVER BAY     MOSUNNY   64  54  68 CALM      29.88S
GRAND MARAIS     N/A     44  42  93 NE3       29.93S
G MARAIS ARPRT CLOUDY    63  52  67 CALM      29.94R
$$
MNZ029>031-032-039>041-046>048-054>057-064-271700-
   West Central Minnesota

CITY           SKY/WX    TMP DP  RH WIND       PRES   REMARKS
FERGUS FALLS   CLOUDY    70  52  52 E8        29.75R
WHEATON        CLOUDY    72  55  56 NE8       29.78S
MORRIS         CLOUDY    66  55  68 NE5       29.75S
ALEXANDRIA     CLOUDY    65  57  75 NE3       29.79S
ELBOW LAKE     CLOUDY    66  53  62 NE8       29.78F
WADENA         CLOUDY    64  54  68 E8        29.79F
GLENWOOD       CLOUDY    70  61  73 SE10      29.78R
APPLETON       CLOUDY    70  57  64 E6        29.75S
BENSON         CLOUDY    70  57  64 SE5       29.76S
ORTONVILLE     LGT RAIN  66  55  68 NW3       29.76S
MADISON        LGT RAIN  64  55  72 NE5       29.76S
WILLMAR        FAIR      70  57  64 SE13      29.79R
$$
MNZ033>034-036-042>043-049>051-058-059-271700-
   Central Minnesota

CITY           SKY/WX    TMP DP  RH WIND       PRES   REMARKS
ST CLOUD       LGT RAIN  64  60  87 SE10      29.81R
SAUK CENTRE    CLOUDY    67  58  72 SE13      29.79R
PAYNESVILLE    CLOUDY    67  57  71 SE12      29.80R
AITKIN         MIX PCPN  63  55  77 E5        29.84R
PINE RIVER     CLOUDY    63  55  77 E8        29.87R
BRAINERD       LGT RAIN  63  57  81 VRB7      29.83R
STAPLES        CLOUDY    64  54  68 E6        29.80S
LONG PRAIRIE     N/A     68  55  64 E14       29.80
LITTLE FALLS   DRIZZLE   66  55  68 SE10      29.82R
LITCHFIELD     LGT RAIN  64  63  94 SE7       29.80F
BUFFALO        RAIN      64  60  86 CALM      29.83S
MAPLE LAKE     LGT RAIN  65  62  91 E5        29.83R
HUTCHINSON     LGT RAIN  64  62  90 SE8       29.81F
$$
MNZ037-044-045-052-053-271700-
   East Central Minnesota

CITY           SKY/WX    TMP DP  RH WIND       PRES   REMARKS
PRINCETON      RAIN      64  61  88 E6        29.84R
MORA           RAIN      59  55  88 E8        29.87R
CAMBRIDGE      RAIN      63  55  77 SE8G16    29.84R
RUSH CITY      LGT RAIN  62  59  90 SE5       29.86S
MOOSE LAKE     LGT RAIN  55  54  94 NE5       29.86R
HINCKLEY       RAIN      61  61 100 E5        29.87R
CLOQUET        LGT RAIN  55  52  88 SE3       29.89R
MCGREGOR       CLOUDY    59  55  88 E3        29.87R
$$
MNZ071>073-080-081-089-090-097-098-271700-
   Southwest Minnesota

CITY           SKY/WX    TMP DP  RH WIND       PRES   REMARKS
MONTEVIDEO     PTSUNNY   72  57  60 S10       29.77S
GRANITE FALLS  PTSUNNY   73  58  59 SE12G17   29.78S
CANBY          CLOUDY    71  58  63 SW5       29.78S
MARSHALL       CLOUDY    69  56  62 SW14      29.77F
REDWOOD FALLS  LGT RAIN  66  58  75 S14       29.78R
OLIVIA         LGT RAIN  63  55  77 S13       29.78R
PIPESTONE      LGT RAIN  64  57  77 S7        29.79F
WINDOM         DRIZZLE   64  57  77 CALM      29.79S
WORTHINGTON    CLOUDY    63  57  81 S5        29.79F
JACKSON        CLOUDY    66  55  68 S8        29.79S
TRACY          LGT RAIN  67  58  73 SW9       29.79S
SLAYTON        CLOUDY    65  56  74 S9        29.81R
$$
MNZ065>067-074>077-082>085-091>093-271700-
   South Central Minnesota

CITY           SKY/WX    TMP DP  RH WIND       PRES   REMARKS
MANKATO        CLOUDY    64  59  82 SE12      29.79F
NEW ULM        LGT RAIN  64  61  88 S8        29.78S
ST JAMES       LGT RAIN  61  55  82 SE13      29.79S
FAIRMONT       CLOUDY    64  57  77 SE8       29.78F
GLENCOE        LGT RAIN  65  63  91 CALM      29.80F
FARIBAULT      CLOUDY    63  61  94 SE7       29.83F
OWATONNA       RAIN      63  61  94 SE6       29.82F
WASECA         LGT RAIN  63  59  88 SE10      29.81F
ALBERT LEA     LGT RAIN  63  63 100 SE3       29.80F
$$
MNZ078>079-086>088-094>096-271700-
   Southeast Minnesota

CITY           SKY/WX    TMP DP  RH WIND       PRES   REMARKS
ROCHESTER      CLOUDY    65  61  87 NE9       29.82F
RED WING       RAIN      64  61  88 CALM      29.80F
STANTON        LGT RAIN  64  60  85 E3        29.81F
DODGE CENTER   CLOUDY    64  61  88 E6        29.82F
WINONA         CLOUDY    70  61  73 CALM      29.82R
AUSTIN         CLOUDY    63  59  88 NE7       29.80F
PRESTON        CLOUDY    64  59  83 NE5       29.83F
$$
ABBREVIATIONS USED IN REMARKS
   TC - TEMPERATURES IN CELSIUS
  WCI - WIND CHILL INDEX
   HX - HEAT INDEX
  VSB - VISIBILITY
$$




USA.gov is the U.S. government's official web portal to all federal, state and local government web resources and services.